Overview Statistics Trail Chart Weather Telemetry Raw packets
 

This is the latest recevied weather packets stored in our database for station/object GW3ATZ-10. If no packets are shown the sender has not sent any weather packets the latest 10 day(s).

<< 13 14 15 16 17 18 19 >>
Time Temp. Humidity Pressure Rain* Wind** Luminosity Snow
1788290027 23.33° C 48% 1019.6 hPa - - - -
1788289127 24.44° C 48% 1019.6 hPa - - - -
1788288227 24.44° C 48% 1019.7 hPa - - - -
1788287327 23.89° C 49% 1019.6 hPa - - - -
1788286426 23.89° C 49% 1019.9 hPa - - - -
1788285526 22.78° C 50% 1019.5 hPa - - - -
1788284626 22.22° C 50% 1019.5 hPa - - - -
1788283726 21.67° C 49% 1019.8 hPa - - - -
1788282826 22.22° C 49% 1019.6 hPa - - - -
1788281926 22.22° C 48% 1019.7 hPa - - - -
1788281026 22.78° C 48% 1019.7 hPa - - - -
1788280126 22.78° C 48% 1019.9 hPa - - - -
1788279226 22.78° C 48% 1019.8 hPa - - - -
1788278326 22.78° C 48% 1020.1 hPa - - - -
1788277425 22.78° C 48% 1020 hPa - - - -
1788276525 22.78° C 48% 1020 hPa - - - -
1788275625 22.22° C 48% 1019.7 hPa - - - -
1788274725 22.22° C 48% 1019.9 hPa - - - -
1788273825 21.67° C 48% 1019.9 hPa - - - -
1788272925 21.67° C 49% 1019.8 hPa - - - -
1788272025 21.11° C 51% 1019.9 hPa - - - -
1788271125 21.11° C 51% 1019.9 hPa - - - -
1788270224 21.11° C 51% 1019.9 hPa - - - -
1788269324 21.11° C 51% 1020.1 hPa - - - -
1788268424 21.11° C 51% 1020 hPa - - - -

* Rain since midnight (hover to see other rain measurements)
** Current wind speed in m/s (hover to see current wind gust speed)